| time (UTC) | temp F | wind direction | speed MPH | gust MPH | rain 1hr in | rain 24hr in | rain mn in | humidity % | barometer mb |
| 20260509012504 | 74 | 155 | 4.0 | 7.0 | 0.00 | 0.00 | 0.00 | 54 | 1025.5 |
| 20260509012003 | 74 | 126 | 2.0 | 8.0 | 0.00 | 0.00 | 0.00 | 54 | 1025.6 |
| 20260509010503 | 74 | 93 | 1.0 | 5.0 | 0.00 | 0.00 | 0.00 | 56 | 1025.7 |
| 20260509005503 | 74 | 55 | 1.0 | 3.0 | 0.00 | 0.00 | 0.00 | 55 | 1025.8 |
| 20260509003004 | 73 | 187 | 1.0 | 3.0 | 0.00 | 0.00 | 0.00 | 53 | 1025.9 |
| 20260509000504 | 73 | 287 | 1.0 | 3.0 | 0.00 | 0.00 | 0.00 | 54 | 1026.0 |
| 20260508234003 | 70 | 264 | 2.0 | 3.0 | 0.00 | 0.00 | 0.00 | 55 | 1025.9 |
| 20260508233004 | 69 | 264 | 0.0 | 3.0 | 0.00 | 0.00 | 0.00 | 57 | 1026.0 |
| 20260508231503 | 67 | 47 | 0.0 | 3.0 | 0.00 | 0.00 | 0.00 | 61 | 1025.9 |
| 20260508230003 | 66 | 346 | 1.0 | 3.0 | 0.00 | 0.00 | 0.00 | 62 | 1025.8 |
| 20260508225503 | 66 | 166 | 1.0 | 3.0 | 0.00 | 0.00 | 0.00 | 60 | 1025.6 |
| 20260508225004 | 66 | 235 | 1.0 | 3.0 | 0.00 | 0.00 | 0.00 | 61 | 1025.5 |
| 20260508224503 | 66 | 219 | 1.0 | 3.0 | 0.00 | 0.00 | 0.00 | 59 | 1025.5 |
| 20260508224003 | 66 | 233 | 1.0 | 3.0 | 0.00 | 0.00 | 0.00 | 59 | 1025.4 |
| 20260508222504 | 65 | 269 | 1.0 | 3.0 | 0.00 | 0.00 | 0.00 | 62 | 1025.4 |
| 20260508221503 | 62 | 342 | 0.0 | 2.0 | 0.00 | 0.00 | 0.00 | 67 | 1025.4 |
| 20260508220502 | 60 | 223 | 1.0 | 2.0 | 0.00 | 0.00 | 0.00 | 72 | 1025.3 |
| 20260508220004 | 58 | 233 | 0.0 | 0.0 | 0.00 | 0.00 | 0.00 | 76 | 1025.3 |
| 20260508215504 | 57 | 296 | 0.0 | 0.0 | 0.00 | 0.00 | 0.00 | 77 | 1025.3 |
| 20260508214503 | 56 | 214 | 0.0 | 0.0 | 0.00 | 0.00 | 0.00 | 76 | 1025.1 |
| 20260508214003 | 56 | 214 | 0.0 | 0.0 | 0.00 | 0.00 | 0.00 | 76 | 1025.0 |
| 20260508213004 | 55 | 214 | 0.0 | 0.0 | 0.00 | 0.00 | 0.00 | 78 | 1024.9 |
| 20260508205503 | 51 | 224 | 0.0 | 0.0 | 0.00 | 0.00 | 0.00 | 80 | 1024.4 |
| 20260508203504 | 51 | 224 | 0.0 | 0.0 | 0.00 | 0.00 | 0.00 | 79 | 1024.3 |
| 20260508202504 | 50 | 224 | 0.0 | 0.0 | 0.00 | 0.00 | 0.00 | 79 | 1024.2 |
| 20260508202003 | 50 | 224 | 0.0 | 0.0 | 0.00 | 0.00 | 0.00 | 79 | 1024.0 |
| 20260508201503 | 51 | 224 | 0.0 | 0.0 | 0.00 | 0.00 | 0.00 | 79 | 1024.0 |
| 20260508200004 | 51 | 224 | 0.0 | 0.0 | 0.00 | 0.00 | 0.00 | 78 | 1023.7 |
| 20260508195503 | 51 | 224 | 0.0 | 0.0 | 0.00 | 0.00 | 0.00 | 77 | 1023.7 |
| 20260508194504 | 51 | 224 | 0.0 | 0.0 | 0.00 | 0.00 | 0.00 | 77 | 1023.6 |
| 20260508194005 | 51 | 224 | 0.0 | 0.0 | 0.00 | 0.00 | 0.00 | 75 | 1023.4 |
| 20260508192503 | 50 | 224 | 0.0 | 0.0 | 0.00 | 0.00 | 0.00 | 75 | 1023.5 |
| 20260508192004 | 50 | 224 | 0.0 | 0.0 | 0.00 | 0.00 | 0.00 | 74 | 1023.3 |
| 20260508190503 | 50 | 224 | 0.0 | 0.0 | 0.00 | 0.00 | 0.00 | 74 | 1023.2 |
| 20260508185503 | 50 | 224 | 0.0 | 0.0 | 0.00 | 0.00 | 0.00 | 76 | 1023.2 |
| 20260508184004 | 50 | 224 | 0.0 | 0.0 | 0.00 | 0.00 | 0.00 | 75 | 1023.2 |
| 20260508183504 | 50 | 224 | 0.0 | 0.0 | 0.00 | 0.00 | 0.00 | 79 | 1023.1 |
| 20260508183004 | 50 | 224 | 0.0 | 1.0 | 0.00 | 0.00 | 0.00 | 73 | 1023.2 |
| 20260508180504 | 48 | 223 | 0.0 | 2.0 | 0.00 | 0.00 | 0.00 | 78 | 1023.1 |
| 20260508180005 | 48 | 223 | 0.0 | 2.0 | 0.00 | 0.00 | 0.00 | 79 | 1023.1 |
| 20260508174504 | 48 | 213 | 0.0 | 1.0 | 0.00 | 0.00 | 0.00 | 79 | 1023.2 |
| 20260508174003 | 48 | 213 | 1.0 | 1.0 | 0.00 | 0.00 | 0.00 | 80 | 1023.2 |
| 20260508173504 | 48 | 209 | 0.0 | 0.0 | 0.00 | 0.00 | 0.00 | 83 | 1023.2 |
| 20260508173004 | 48 | 209 | 0.0 | 2.0 | 0.00 | 0.00 | 0.00 | 83 | 1023.2 |
| 20260508172504 | 48 | 209 | 0.0 | 2.0 | 0.00 | 0.00 | 0.00 | 80 | 1023.2 |
| 20260508172004 | 48 | 209 | 0.0 | 2.0 | 0.00 | 0.00 | 0.00 | 79 | 1023.2 |
| 20260508170503 | 48 | 160 | 0.0 | 0.0 | 0.00 | 0.00 | 0.00 | 79 | 1022.9 |
| 20260508165004 | 47 | 160 | 0.0 | 0.0 | 0.00 | 0.00 | 0.00 | 77 | 1022.8 |
| 20260508164503 | 47 | 160 | 0.0 | 2.0 | 0.00 | 0.00 | 0.00 | 76 | 1022.8 |
| 20260508164004 | 47 | 160 | 0.0 | 2.0 | 0.00 | 0.00 | 0.00 | 82 | 1022.9 |
| 20260508162003 | 47 | 160 | 0.0 | 0.0 | 0.00 | 0.00 | 0.00 | 82 | 1022.9 |
| 20260508160504 | 47 | 160 | 0.0 | 0.0 | 0.00 | 0.00 | 0.00 | 81 | 1022.7 |
| 20260508155003 | 47 | 160 | 0.0 | 1.0 | 0.00 | 0.00 | 0.00 | 82 | 1022.9 |
| 20260508154504 | 47 | 160 | 0.0 | 0.0 | 0.00 | 0.00 | 0.00 | 81 | 1022.9 |
| 20260508153503 | 47 | 160 | 0.0 | 0.0 | 0.00 | 0.00 | 0.00 | 80 | 1022.7 |
| 20260508152503 | 48 | 163 | 0.0 | 2.0 | 0.00 | 0.00 | 0.00 | 78 | 1022.7 |
| 20260508152004 | 48 | 163 | 0.0 | 2.0 | 0.00 | 0.00 | 0.00 | 79 | 1022.8 |
| 20260508151504 | 48 | 96 | 1.0 | 2.0 | 0.00 | 0.00 | 0.00 | 78 | 1022.7 |
| 20260508144504 | 49 | 136 | 0.0 | 0.0 | 0.00 | 0.00 | 0.00 | 76 | 1022.7 |
| 20260508143004 | 50 | 111 | 0.0 | 0.0 | 0.00 | 0.00 | 0.00 | 75 | 1022.7 |
| 20260508142504 | 50 | 111 | 0.0 | 0.0 | 0.00 | 0.00 | 0.00 | 75 | 1022.7 |
| 20260508142004 | 51 | 111 | 0.0 | 0.0 | 0.00 | 0.00 | 0.00 | 75 | 1022.7 |
| 20260508141003 | 52 | 243 | 0.0 | 0.0 | 0.00 | 0.00 | 0.00 | 74 | 1022.7 |
| 20260508140504 | 52 | 243 | 0.0 | 0.0 | 0.00 | 0.00 | 0.00 | 73 | 1022.6 |
| 20260508140004 | 52 | 243 | 0.0 | 0.0 | 0.00 | 0.00 | 0.00 | 72 | 1022.6 |
| 20260508134004 | 54 | 246 | 0.0 | 0.0 | 0.00 | 0.00 | 0.00 | 65 | 1022.3 |
| 20260508133004 | 54 | 239 | 0.0 | 0.0 | 0.00 | 0.00 | 0.00 | 64 | 1022.2 |
| 20260508131005 | 55 | 236 | 0.0 | 0.0 | 0.00 | 0.00 | 0.00 | 63 | 1022.2 |
| 20260508130504 | 54 | 236 | 0.0 | 0.0 | 0.00 | 0.00 | 0.00 | 64 | 1022.2 |
| 20260508130004 | 55 | 236 | 0.0 | 0.0 | 0.00 | 0.00 | 0.00 | 67 | 1022.2 |
| 20260508125504 | 55 | 236 | 0.0 | 0.0 | 0.00 | 0.00 | 0.00 | 64 | 1022.2 |
| 20260508125004 | 54 | 236 | 0.0 | 0.0 | 0.00 | 0.00 | 0.00 | 64 | 1022.2 |
| 20260508123504 | 54 | 232 | 0.0 | 0.0 | 0.00 | 0.00 | 0.00 | 64 | 1022.2 |
| 20260508122504 | 55 | 205 | 0.0 | 0.0 | 0.00 | 0.00 | 0.00 | 65 | 1022.2 |
| 20260508122004 | 55 | 205 | 0.0 | 0.0 | 0.00 | 0.00 | 0.00 | 66 | 1022.2 |
| 20260508121503 | 55 | 205 | 0.0 | 0.0 | 0.00 | 0.00 | 0.00 | 63 | 1022.2 |
| 20260508120506 | 55 | 197 | 0.0 | 0.0 | 0.00 | 0.00 | 0.00 | 64 | 1022.2 |
| 20260508115504 | 56 | 198 | 0.0 | 0.0 | 0.00 | 0.00 | 0.00 | 63 | 1022.2 |
| 20260508115004 | 56 | 198 | 0.0 | 0.0 | 0.00 | 0.00 | 0.00 | 62 | 1022.2 |
| 20260508114505 | 57 | 197 | 0.0 | 0.0 | 0.00 | 0.00 | 0.00 | 63 | 1022.3 |
| 20260508113004 | 58 | 198 | 0.0 | 0.0 | 0.00 | 0.00 | 0.00 | 57 | 1022.2 |
| 20260508111004 | 59 | 178 | 0.0 | 2.0 | 0.00 | 0.00 | 0.00 | 55 | 1021.9 |
| 20260508110504 | 59 | 183 | 0.0 | 2.0 | 0.00 | 0.00 | 0.00 | 55 | 1021.8 |
| 20260508105505 | 60 | 190 | 1.0 | 3.0 | 0.00 | 0.00 | 0.00 | 55 | 1021.6 |
| 20260508105004 | 60 | 158 | 1.0 | 3.0 | 0.00 | 0.00 | 0.00 | 56 | 1021.6 |
| 20260508104506 | 60 | 150 | 1.0 | 3.0 | 0.00 | 0.00 | 0.00 | 56 | 1021.6 |
| 20260508103005 | 60 | 170 | 1.0 | 3.0 | 0.00 | 0.00 | 0.00 | 54 | 1021.6 |
| 20260508102505 | 60 | 157 | 1.0 | 3.0 | 0.00 | 0.00 | 0.00 | 53 | 1021.6 |
| 20260508101005 | 61 | 173 | 2.0 | 3.0 | 0.00 | 0.00 | 0.00 | 50 | 1021.5 |
| 20260508100004 | 61 | 183 | 1.0 | 3.0 | 0.00 | 0.00 | 0.00 | 48 | 1021.6 |
| 20260508095504 | 62 | 185 | 2.0 | 3.0 | 0.00 | 0.00 | 0.00 | 49 | 1021.4 |
| 20260508092504 | 62 | 134 | 1.0 | 3.0 | 0.00 | 0.00 | 0.00 | 47 | 1021.1 |
| 20260508091505 | 62 | 136 | 1.0 | 3.0 | 0.00 | 0.00 | 0.00 | 46 | 1021.1 |
| 20260508090505 | 63 | 142 | 2.0 | 3.0 | 0.00 | 0.00 | 0.00 | 45 | 1021.0 |
| 20260508085004 | 63 | 163 | 2.0 | 5.0 | 0.00 | 0.00 | 0.00 | 42 | 1020.8 |
| 20260508084504 | 64 | 158 | 2.0 | 3.0 | 0.00 | 0.00 | 0.00 | 41 | 1020.8 |
| 20260508084004 | 64 | 177 | 1.0 | 3.0 | 0.00 | 0.00 | 0.00 | 40 | 1020.8 |
| 20260508083504 | 64 | 165 | 1.0 | 3.0 | 0.00 | 0.00 | 0.00 | 39 | 1020.7 |
| 20260508083004 | 65 | 115 | 1.0 | 3.0 | 0.00 | 0.00 | 0.00 | 39 | 1020.7 |
| 20260508082504 | 65 | 131 | 2.0 | 3.0 | 0.00 | 0.00 | 0.00 | 39 | 1020.7 |
| 20260508082005 | 65 | 133 | 1.0 | 3.0 | 0.00 | 0.00 | 0.00 | 39 | 1020.6 |
| 20260508081005 | 65 | 114 | 1.0 | 3.0 | 0.00 | 0.00 | 0.00 | 38 | 1020.3 |
| 20260508080505 | 65 | 103 | 1.0 | 3.0 | 0.00 | 0.00 | 0.00 | 38 | 1020.2 |
| 20260508080004 | 66 | 124 | 1.0 | 3.0 | 0.00 | 0.00 | 0.00 | 39 | 1020.1 |
| 20260508075005 | 66 | 132 | 2.0 | 3.0 | 0.00 | 0.00 | 0.00 | 38 | 1019.9 |
| 20260508074505 | 66 | 126 | 1.0 | 2.0 | 0.00 | 0.00 | 0.00 | 37 | 1019.9 |
| 20260508073006 | 67 | 83 | 1.0 | 3.0 | 0.00 | 0.00 | 0.00 | 35 | 1019.9 |
| 20260508072507 | 67 | 61 | 1.0 | 3.0 | 0.00 | 0.00 | 0.00 | 35 | 1019.9 |
| 20260508072006 | 68 | 64 | 2.0 | 2.0 | 0.00 | 0.00 | 0.00 | 35 | 1019.8 |
| 20260508070005 | 70 | 11 | 0.0 | 2.0 | 0.00 | 0.00 | 0.00 | 33 | 1019.5 |
| 20260508065504 | 71 | 11 | 1.0 | 3.0 | 0.00 | 0.00 | 0.00 | 32 | 1019.5 |
| 20260508064504 | 72 | 32 | 2.0 | 3.0 | 0.00 | 0.00 | 0.00 | 33 | 1019.5 |
| 20260508063504 | 73 | 15 | 0.0 | 3.0 | 0.00 | 0.00 | 0.00 | 31 | 1019.4 |
| 20260508063005 | 73 | 10 | 1.0 | 6.0 | 0.00 | 0.00 | 0.00 | 32 | 1019.2 |
| 20260508062505 | 72 | 3 | 3.0 | 7.0 | 0.00 | 0.00 | 0.00 | 30 | 1019.2 |
| 20260508062005 | 72 | 2 | 5.0 | 7.0 | 0.00 | 0.00 | 0.00 | 30 | 1019.3 |
| 20260508061505 | 72 | 358 | 4.0 | 6.0 | 0.00 | 0.00 | 0.00 | 31 | 1019.3 |
| 20260508060004 | 72 | 17 | 5.0 | 7.0 | 0.00 | 0.00 | 0.00 | 32 | 1019.4 |
| 20260508055504 | 72 | 12 | 4.0 | 9.0 | 0.00 | 0.00 | 0.00 | 32 | 1019.3 |
| 20260508054504 | 73 | 358 | 3.0 | 9.0 | 0.00 | 0.00 | 0.00 | 31 | 1019.3 |
| 20260508054004 | 73 | 1 | 3.0 | 6.0 | 0.00 | 0.00 | 0.00 | 32 | 1019.4 |
| 20260508053004 | 73 | 31 | 2.0 | 5.0 | 0.00 | 0.00 | 0.00 | 35 | 1019.4 |
| 20260508052005 | 73 | 8 | 4.0 | 9.0 | 0.00 | 0.00 | 0.00 | 31 | 1019.4 |
| 20260508051505 | 73 | 342 | 6.0 | 9.0 | 0.00 | 0.00 | 0.00 | 30 | 1019.5 |
| 20260508050004 | 73 | 353 | 2.0 | 10.0 | 0.00 | 0.00 | 0.00 | 32 | 1019.5 |
| 20260508045004 | 73 | 339 | 6.0 | 10.0 | 0.00 | 0.00 | 0.00 | 31 | 1019.6 |
| 20260508044505 | 74 | 10 | 3.0 | 10.0 | 0.00 | 0.00 | 0.00 | 30 | 1019.6 |
| 20260508044005 | 74 | 359 | 6.0 | 10.0 | 0.00 | 0.00 | 0.00 | 32 | 1019.5 |
| 20260508041505 | 73 | 41 | 2.0 | 6.0 | 0.00 | 0.00 | 0.00 | 30 | 1019.5 |
| 20260508040505 | 73 | 319 | 5.0 | 7.0 | 0.00 | 0.00 | 0.00 | 30 | 1019.6 |
| 20260508035004 | 73 | 346 | 2.0 | 7.0 | 0.00 | 0.00 | 0.00 | 32 | 1019.8 |
| 20260508034504 | 73 | 4 | 2.0 | 6.0 | 0.00 | 0.00 | 0.00 | 32 | 1019.9 |
| 20260508034005 | 73 | 199 | 2.0 | 12.0 | 0.00 | 0.00 | 0.00 | 32 | 1019.9 |
| 20260508033505 | 73 | 341 | 2.0 | 12.0 | 0.00 | 0.00 | 0.00 | 34 | 1020.0 |
| 20260508032504 | 72 | 12 | 4.0 | 8.0 | 0.00 | 0.00 | 0.00 | 34 | 1020.1 |
| 20260508031504 | 72 | 21 | 3.0 | 9.0 | 0.00 | 0.00 | 0.00 | 32 | 1020.4 |
| 20260508030005 | 72 | 341 | 5.0 | 9.0 | 0.00 | 0.00 | 0.00 | 32 | 1020.5 |
| 20260508024005 | 71 | 0 | 3.0 | 12.0 | 0.00 | 0.00 | 0.00 | 36 | 1020.7 |
| 20260508023505 | 71 | 340 | 5.0 | 12.0 | 0.00 | 0.00 | 0.00 | 32 | 1020.8 |
| 20260508021005 | 71 | 357 | 5.0 | 9.0 | 0.00 | 0.00 | 0.00 | 31 | 1021.5 |
| 20260508020504 | 70 | 338 | 1.0 | 9.0 | 0.00 | 0.00 | 0.00 | 33 | 1021.6 |
| 20260508014005 | 71 | 350 | 3.0 | 6.0 | 0.00 | 0.00 | 0.00 | 33 | 1021.8 |